KUIPER-00270

导读

KUIPER-00270是亚马逊“柯伊伯计划”卫星互联网项目的量产卫星,于2026年2月12日由法国阿丽亚娜空间公司发射。该计划计划在近地轨道部署3236颗卫星,旨在为全球提供高速、经济的卫星互联网接入服务,KUIPER-00270是该星座组网进程中的一颗关键卫星,将助力全球网络覆盖推进。

基本信息
目录编号:
67791
目录名称:
KUIPER-00270
国际标识:
2026-030AD
轨道中心:
EARTH
卫星名称:
KUIPER-00270
卫星全名:
KUIPER-00270
卫星状态:
在轨 (已飞行212 天)
发射日期:
2026-02-12 UTC
国别 :
美国 (US)
星等 :
--
该卫星已列入 空间交会检测服务 Space Conjunction Data Service (SCDS) ,当前飞行风险评估等级: 无高风险
轨道信息
数据来源 国际轨道数据
星历时间: 2026-09-11T23:56:14+0800
11小时前
查看轨道信息
半长轴: 7007.605km
偏心率: 0.0000785
轨道倾角: 51.897°
近地点辐角 78.627°
升交点赤经 78.240°
平近点角 281.478°
近地点: 628.917km
远地点: 630.019km
周期: 97.300分钟
每日圈数: 14.799546
详细信息
使用方式:
暂无
2D轨道图
3D轨道图
轨道高度分析图
轨道倾角分析图
轨道综合分析图
查看轨道综合分析图
交会数据列表
事件ID 空间交会对象 最接近时刻(TCA) 交会距离 交会风险概率(CRP) 交会风险指数(CRI) 操作
CDM_260912-163905-463206-779122
2026-09-12T
16:39:27+0000
2.753 km
极远距离
1.31509E-6 低风险 0.37
CDM_260912-213506-512306-779122
2026-09-12T
21:35:25+0000
2.851 km
极远距离
3.839708E-7 极低风险 0.27
与全量物体交会距离演化趋势
与全量物体交会风险概率演化趋势